Location: Peterborough
(44.3091°N, 78.3197°W)
Time: 05:01:36
(UTC-05:00)

Courier 1B - Visible Passes

Search period start: 23 February 2024 00:00
Search period end: 04 March 2024 00:00
Orbit: 962 x 1209 km, 28.3° (Epoch: 22 February)

Date Brightness Start Highest point End Pass type
(mag) Time Alt. Az. Time Alt. Az. Time Alt. Az.
23 Feb 9.3 04:33:04 17° S 04:33:04 17° S 04:36:32 10° SSE visible
24 Feb 9.8 03:42:41 11° SSE 03:42:41 11° SSE 03:43:10 10° SE visible
24 Feb 9.5 05:29:58 10° SW 05:31:38 11° SSW 05:33:20 10° S visible
25 Feb 9.5 04:39:14 13° S 04:39:14 13° S 04:41:04 10° S visible
